This is the latest recevied weather packets stored in our database for station/object NN5DX-12. If no packets are shown the sender has not sent any weather packets the latest 10 day(s).
| Time | Temp. | Humidity | Pressure | Rain* | Wind** | Luminosity | Snow |
|---|---|---|---|---|---|---|---|
| 1777840217 | 16.11° C | 18% | 1019.2 hPa | 0 mm | - | - | - |
| 1777839916 | 16.11° C | 16% | 1020.2 hPa | 0 mm | - | - | - |
| 1777839616 | 16.67° C | 17% | 1020.8 hPa | 0 mm | - | - | - |
| 1777839317 | 16.67° C | 18% | 1020.9 hPa | 0 mm | - | - | - |
| 1777839016 | 17.22° C | 17% | 1020.9 hPa | 0 mm | - | - | - |
| 1777838717 | 18.33° C | 16% | 1021.5 hPa | 0 mm | - | - | - |
| 1777838417 | 18.33° C | 17% | 1021.5 hPa | 0 mm | - | - | - |
| 1777838117 | 18.33° C | 19% | 1022.1 hPa | 0 mm | - | - | - |
| 1777837816 | 17.78° C | 21% | 1022.2 hPa | 0 mm | - | - | - |
| 1777837517 | 17.78° C | 20% | 1021.7 hPa | 0 mm | - | - | - |
| 1777837217 | 16.67° C | 20% | 1021.8 hPa | 0 mm | - | - | - |
| 1777836916 | 16.11° C | 19% | 1021.3 hPa | 0 mm | - | - | - |
| 1777836616 | 16.67° C | 20% | 1022 hPa | 0 mm | - | - | - |
| 1777836316 | 16.67° C | 19% | 1021.6 hPa | 0 mm | - | - | - |
| 1777836016 | 17.22° C | 18% | 1022.2 hPa | 0 mm | - | - | - |
| 1777835716 | 17.78° C | 18% | 1022.2 hPa | 0 mm | - | - | - |
| 1777835416 | 16.67° C | 22% | 1022 hPa | 0 mm | - | - | - |
| 1777835117 | 17.22° C | 19% | 1022.5 hPa | 0 mm | - | - | - |
| 1777834817 | 16.67° C | 20% | 1022.1 hPa | 0 mm | - | - | - |
| 1777834516 | 16.67° C | 20% | 1022.1 hPa | 0 mm | - | - | - |
| 1777834216 | 16.67° C | 19% | 1022.2 hPa | 0 mm | - | - | - |
| 1777833916 | 16.11° C | 21% | 1022.4 hPa | 0 mm | - | - | - |
| 1777833617 | 16.11° C | 21% | 1022.5 hPa | 0 mm | - | - | - |
| 1777833316 | 16.11° C | 21% | 1022.7 hPa | 0 mm | - | - | - |
| 1777833016 | 16.11° C | 20% | 1022.6 hPa | 0 mm | - | - | - |
* Rain latest hour (hover to see other rain measurements)
** Current wind speed in m/s (hover to see current wind gust speed)